021  
ASUS42 KTBW 241017  
RWRFL  
FLORIDA REGIONAL WEATHER ROUNDUP  
NATIONAL WEATHER SERVICE TAMPA BAY RUSKIN FL  
600 AM EDT SUN JUN 24 2018  
 
NOTE: "FAIR" INDICATES FEW OR NO CLOUDS BELOW 12,000 FEET WITH NO  
SIGNIFICANT WEATHER AND/OR S TO VISIBILITY
.  
 
FLZ001>010-012>015-112-114-115-241100-  
PANHANDLE FLORIDA  
 
CITY SKY/WX TMP DP RH WIND PRES REMARKS
 
PENSACOLA FAIR 80 75 84 W5 29.99R  
PENSACOLA NAS FAIR 80 75 84 CALM 29.98R  
MILTON NAS FAIR 77 76 96 W5 30.00  
CRESTVIEW FAIR 74 72 93 CALM 30.01R  
DUKE FIELD FAIR 75 73 95 CALM 29.99R  
VALPARAISO PTCLDY 81 76 85 CALM 29.99R  
MARY ESTHER CLEAR 82 76 82 SW3 29.98R  
TRI COUNTY FAIR 75 74 96 CALM 30.00R  
PANAMA CITY FAIR 77 75 93 CALM 29.99R  
TYNDALL AFB FAIR 82 76 83 W9 29.99R  
APALACHICOLA FAIR 82 80 94 W9 29.98R  
 
STATION/POSITION SKY/WX TEMP WIND PRES WAVE SWELL
 
AIR SEA DIR/SP/G HT/PER HT/PER  
(F) (DEG/KT/KT) (MB) (FT/S) (FT/S)  
30.1N 87.6W 84 230/ 14/ 17 1015.2R 3/ 4  
29.2N 88.2W 85 200/ 14/ 16 1015.7R 3/ 4  
28.8N 86.0W 84 85 220/ 12/ 14 1015.4R 2/ 5 2/ 6  
PANAMA CITY BEAC 83 81 250/ 14/ 15 1015.9R  
TOWER C 82 260/ 12/ 13 1016.0R  
 

 
FLZ011-016>038-118-127-128-134-139-239-241100-  
NORTH FLORIDA  
 
CITY SKY/WX TMP DP RH WIND PRES REMARKS
 
MARIANNA FAIR 77 76 96 W3 29.99R  
TALLAHASSEE FAIR 77 75 93 NW5 30.00R  
PERRY FAIR 77 76 96 CALM 30.01R  
LIVE OAK MOCLDY 77 77 100 CALM 30.02R FOG  
CROSS CITY FAIR 73 N/A N/A CALM 30.01R  
LAKE CITY MOCLDY 73 73 100 CALM 30.01R  
GAINESVILLE FAIR 76 73 91 CALM 30.03S  
WILLISTON FOG 77 77 100 CALM 30.02R VSB 3/4  
PALATKA FAIR 73 73 100 CALM 30.02R  
MAYPORT NAS FAIR 77 75 93 SW5 30.00R  
JACKSONVILLE MOCLDY 76 75 97 SW3 30.00R  
JAX CECIL FAIR 75 75 100 CALM 30.00R  
FERNANDINA BEA FAIR 79 75 87 SW7 29.99R  
ST AUGUSTINE FAIR 75 73 93 SW5 30.01R  
PALM COAST CLEAR 75 73 94 CALM 30.01R  
 
STATION/POSITION SKY/WX TEMP WIND PRES WAVE SWELL
 
AIR SEA DIR/SP/G HT/PER HT/PER  
(F) (DEG/KT/KT) (MB) (FT/S) (FT/S)  
SHELL POINT NOT AVBL  
KEATON BEACH 83 270/ 7/ 8 1016.1R  
CEDAR KEY 83 240/ 6/ 8 1016.3R  
FERNANDINA 80 84 180/ 3/ 6 1016.7R  
30.7N 81.3W 82 N/A 2/ 4  
MAYPORT 78 85 200/ 4/ 6 1016.1R  
31.4N 80.9W 81 83 220/ 10/ 12 1015.1R 3/ 5 2/ 8  
ST AUGUSTINE 76 79 230/ 4/ 5 1016.3R  
 

 
FLZ040-043>046-052-053-057-058-063-144-241100-  
INTERIOR CENTRAL FLORIDA  
 
CITY SKY/WX TMP DP RH WIND PRES REMARKS
 
OCALA FAIR 75 74 96 CALM 30.02R  
LEESBURG FAIR 76 75 97 CALM 30.02R  
SANFORD FAIR 76 73 91 CALM 30.01R  
ORLANDO EXEC FAIR 76 75 97 CALM 30.01R  
ORLANDO INTL FAIR 74 73 97 CALM 30.01R  
WINTER HAVEN FAIR 75 72 90 S3 30.02R  
LAKELAND CLEAR 75 73 94 CALM 30.02R  
BARTOW FAIR 72 N/A N/A CALM 30.02R  
SEBRING FAIR 76 73 92 CALM 30.01R  
OKEECHOBEE FAIR 72 72 100 CALM 30.00S  
 

 
FLZ041-047-054-059-064-141-147-241100-  
EAST CENTRAL FLORIDA  
 
CITY SKY/WX TMP DP RH WIND PRES REMARKS
 
DAYTONA BEACH FAIR 75 75 100 S3 30.01R  
DELAND FAIR 75 73 94 CALM 30.01R  
CAPE CANAVERAL FAIR 75 73 94 CALM 30.00R FOG  
PATRICK AFB FAIR 78 77 97 CALM 30.00R  
MELBOURNE FAIR 77 74 90 CALM 30.00R  
VERO BEACH FAIR 74 72 93 CALM 30.01R  
FT PIERCE FAIR 74 74 100 CALM 30.00S  
STUART FAIR 77 73 88 CALM 30.02S  
 
STATION/POSITION SKY/WX TEMP WIND PRES WAVE SWELL
 
AIR SEA DIR/SP/G HT/PER HT/PER  
(F) (DEG/KT/KT) (MB) (FT/S) (FT/S)  
28.5N 80.2W 81 81 250/ 4/ 6 1016.2R 1/ 8  
28.9N 78.5W 83 83 210/ 12/ 14 1016.7R 2/ 8 2/ 8  
TRIDENT PIER 240/ 1/ 2 1017.6R  
28.4N 80.5W 79 N/A 1/ 8  
27.5N 80.2W 81 N/A 1  
 

 
FLZ050-056-061-142-242-148-248-149-249-151-251-155-255-  
160-260-241100-  
WEST CENTRAL FLORIDA  
 
CITY SKY/WX TMP DP RH WIND PRES REMARKS
 
CRYSTAL RIVER FAIR 73 73 100 CALM 30.01R FOG  
INVERNESS FAIR 73 73 100 CALM 30.02R  
BROOKSVILLE FAIR 75 73 93 CALM 30.02R  
CLEARWATER AIR FAIR 77 73 88 CALM 30.00R  
ST PETE CLEARW FAIR 78 77 96 CALM 30.00R  
TAMPA INTL FAIR 81 74 79 CALM 30.01R  
TAMPA EXEC FAIR 73 72 94 CALM 30.01S  
PLANT CITY FAIR 75 73 94 CALM 30.03S  
MACDILL AFB FAIR 77 74 91 E3 30.00R  
PETER O KNIGHT CLOUDY N/A N/A N/A E3 30.01R  
ST PETERSBURG FAIR 83 77 82 N3 29.98S  
SARASOTA FAIR 77 75 93 SE6 29.98R  
VENICE FAIR 79 77 94 E5 30.00S  
 
STATION/POSITION SKY/WX TEMP WIND PRES WAVE SWELL
 
AIR SEA DIR/SP/G HT/PER HT/PER  
(F) (DEG/KT/KT) (MB) (FT/S) (FT/S)  
27.3N 84.2W 85 N/A 2/ 5  
CLEARWATER BEACH 83 89 270/ 4/ 6 1015.9S  
MIDDLE TAMPA BAY 100/ 4/ 5 1015.7S  
VENICE 78 86 90/ 6/ 7 1015.9R  
 

 
FLZ066-069-070-075>078-162-262-165-265-241100-  
SOUTHWEST FLORIDA AND KEYS  
 
CITY SKY/WX TMP DP RH WIND PRES REMARKS
 
PUNTA GORDA FAIR 77 74 90 CALM 30.02R  
FT MYERS FAIR N/A N/A N/A S3 29.99F  
SOUTHWEST INTL FAIR 75 75 100 CALM 30.00S  
NAPLES FAIR 78 78 100 CALM 30.00R  
MARCO ISLAND FAIR 77 76 96 NE3 30.00S  
IMMOKALEE FOG 73 73 100 CALM 30.02R VSB 1/2  
MARATHON FAIR 82 73 74 SE3 29.99R  
KEY WEST NAS TSTM 77 73 87 NE6 29.99S  
KEY WEST INTL LGT RAIN 80 79 96 NE3 30.00R  
 
STATION/POSITION SKY/WX TEMP WIND PRES WAVE SWELL
 
AIR SEA DIR/SP/G HT/PER HT/PER  
(F) (DEG/KT/KT) (MB) (FT/S) (FT/S)  
NAPLES 79 87 1015.8R  
26.0N 85.6W 83 84 160/ 8/ 10 1015.3  
DRY TORTUGAS 83 110/ 1/ 2 1015.8S  
SAND KEY 83 1015.5S  
SOMBRERO KEY 84 120/ 6/ 8 1014.8S  
LONG KEY 84 89 150/ 4/ 6 1015.4R  
 

 
FLZ067-068-071>074-168-172>174-241100-  
SOUTHEAST FLORIDA  
 
CITY SKY/WX TMP DP RH WIND PRES REMARKS
 
W PALM BEACH FAIR 77 76 96 CALM 30.00S  
FT LAUDER-EXEC FAIR 76 75 97 NE3 29.99F  
FT LAUDERDALE FAIR 76 76 100 CALM 29.99F  
POMPANO BEACH FAIR 78 73 84 SW6 30.00S  
PEMBROKE PINES FAIR 79 75 87 CALM 30.01S  
OPA LOCKA FAIR 78 76 93 CALM 30.00F  
MIAMI MOCLDY 79 76 90 CALM 30.00S  
WEST KENDALL HVY RAIN 77 73 87 SE6 30.00S  
HOMESTEAD FAIR 75 74 95 CALM 29.99S  
 
STATION/POSITION SKY/WX TEMP WIND PRES WAVE SWELL
 
AIR SEA DIR/SP/G HT/PER HT/PER  
(F) (DEG/KT/KT) (MB) (FT/S) (FT/S)  
PORT EVERGLADES 76 240/ 1/ 3 1015.6F  
VIRGINIA KEY 81 87 310/ 3/ 4 1015.2S  
FOWEY ROCKS 81 83 250/ 10/ 11 1016.5R  
SETTLEMENT POINT 81 140/ 4/ 5 1016.1R  
 

 
 
 
 
CLICK HERE TO GO TO PREVIOUS BULLETINS.

The Nexlab FL Page Main Text Page